Year,Month,Day,Hour,Minute,Value (Times are PST for temperature in C)
2015,09,23,00,00,7.60
2015,09,23,00,01,7.60
2015,09,23,00,02,7.50
2015,09,23,00,03,7.50
2015,09,23,00,04,7.50
2015,09,23,00,05,7.50
2015,09,23,00,06,7.50
2015,09,23,00,07,7.40
2015,09,23,00,08,7.40
2015,09,23,00,09,7.40
2015,09,23,00,10,7.40
2015,09,23,00,11,7.40
2015,09,23,00,12,7.40
2015,09,23,00,13,7.40
2015,09,23,00,14,7.40
2015,09,23,00,15,7.40
2015,09,23,00,16,7.40
2015,09,23,00,17,7.30
2015,09,23,00,18,7.30
2015,09,23,00,19,7.30
2015,09,23,00,20,7.30
2015,09,23,00,21,7.30
2015,09,23,00,22,7.30
2015,09,23,00,23,7.30
2015,09,23,00,24,7.30
2015,09,23,00,25,7.30
2015,09,23,00,26,7.30
2015,09,23,00,27,7.30
2015,09,23,00,28,7.30
2015,09,23,00,29,7.30
2015,09,23,00,30,7.30
2015,09,23,00,31,7.30
2015,09,23,00,32,7.30
2015,09,23,00,33,7.30
2015,09,23,00,34,7.20
2015,09,23,00,35,7.20
2015,09,23,00,36,7.20
2015,09,23,00,37,7.20
2015,09,23,00,38,7.20
2015,09,23,00,39,7.20
2015,09,23,00,40,7.20
2015,09,23,00,41,7.20
2015,09,23,00,42,7.20
2015,09,23,00,43,7.20
2015,09,23,00,44,7.20
2015,09,23,00,45,7.20
2015,09,23,00,46,7.20
2015,09,23,00,47,7.20
2015,09,23,00,48,7.20
2015,09,23,00,49,7.20
2015,09,23,00,50,7.20
2015,09,23,00,51,7.20
2015,09,23,00,52,7.20
2015,09,23,00,53,7.20
2015,09,23,00,54,7.20
2015,09,23,00,55,7.20
2015,09,23,00,56,7.20
2015,09,23,00,57,7.20
2015,09,23,00,58,7.20
2015,09,23,00,59,7.20
2015,09,23,01,00,7.30
2015,09,23,01,01,7.30
2015,09,23,01,02,7.30
2015,09,23,01,03,7.30
2015,09,23,01,04,7.30
2015,09,23,01,05,7.30
2015,09,23,01,06,7.30
2015,09,23,01,07,7.30
2015,09,23,01,08,7.30
2015,09,23,01,09,7.30
2015,09,23,01,10,7.30
2015,09,23,01,11,7.30
2015,09,23,01,12,7.30
2015,09,23,01,13,7.30
2015,09,23,01,14,7.30
2015,09,23,01,15,7.30
2015,09,23,01,16,7.30
2015,09,23,01,17,7.30
2015,09,23,01,18,7.30
2015,09,23,01,19,7.30
2015,09,23,01,20,7.30
2015,09,23,01,21,7.30
2015,09,23,01,22,7.30
2015,09,23,01,23,7.30
2015,09,23,01,24,7.30
2015,09,23,01,25,7.30
2015,09,23,01,26,7.30
2015,09,23,01,27,7.30
2015,09,23,01,28,7.30
2015,09,23,01,29,7.20
2015,09,23,01,30,7.20
2015,09,23,01,31,7.20
2015,09,23,01,32,7.20
2015,09,23,01,33,7.20
2015,09,23,01,34,7.20
2015,09,23,01,35,7.20
2015,09,23,01,36,7.20
2015,09,23,01,37,7.20
2015,09,23,01,38,7.20
2015,09,23,01,39,7.20
2015,09,23,01,40,7.20
2015,09,23,01,41,7.20
2015,09,23,01,42,7.20
2015,09,23,01,43,7.20
2015,09,23,01,44,7.20
2015,09,23,01,45,7.10
2015,09,23,01,46,7.10
2015,09,23,01,47,7.10
2015,09,23,01,48,7.10
2015,09,23,01,49,7.10
2015,09,23,01,50,7.10
2015,09,23,01,51,7.10
2015,09,23,01,52,7.10
2015,09,23,01,53,7.10
2015,09,23,01,54,7.10
2015,09,23,01,55,7.10
2015,09,23,01,56,7.10
2015,09,23,01,57,7.10
2015,09,23,01,58,7.10
2015,09,23,01,59,7.10
2015,09,23,02,00,7.10
2015,09,23,02,01,7.10
2015,09,23,02,02,7.10
2015,09,23,02,03,7.10
2015,09,23,02,04,7.10
2015,09,23,02,05,7.10
2015,09,23,02,06,7.10
2015,09,23,02,07,7.10
2015,09,23,02,08,7.20
2015,09,23,02,09,7.20
2015,09,23,02,10,7.20
2015,09,23,02,11,7.20
2015,09,23,02,12,7.20
2015,09,23,02,13,7.20
2015,09,23,02,14,7.20
2015,09,23,02,15,7.30
2015,09,23,02,16,7.30
2015,09,23,02,17,7.30
2015,09,23,02,18,7.30
2015,09,23,02,19,7.30
2015,09,23,02,20,7.30
2015,09,23,02,21,7.30
2015,09,23,02,22,7.30
2015,09,23,02,23,7.30
2015,09,23,02,24,7.30
2015,09,23,02,25,7.30
2015,09,23,02,26,7.30
2015,09,23,02,27,7.30
2015,09,23,02,28,7.30
2015,09,23,02,29,7.30
2015,09,23,02,30,7.30
2015,09,23,02,31,7.30
2015,09,23,02,32,7.30
2015,09,23,02,33,7.30
2015,09,23,02,34,7.30
2015,09,23,02,35,7.30
2015,09,23,02,36,7.30
2015,09,23,02,37,7.30
2015,09,23,02,38,7.30
2015,09,23,02,39,7.30
2015,09,23,02,40,7.30
2015,09,23,02,41,7.30
2015,09,23,02,42,7.30
2015,09,23,02,43,7.30
2015,09,23,02,44,7.30
2015,09,23,02,45,7.30
2015,09,23,02,46,7.30
2015,09,23,02,47,7.30
2015,09,23,02,48,7.30
2015,09,23,02,49,7.30
2015,09,23,02,50,7.30
2015,09,23,02,51,7.30
2015,09,23,02,52,7.30
2015,09,23,02,53,7.30
2015,09,23,02,54,7.40
2015,09,23,02,55,7.40
2015,09,23,02,56,7.40
2015,09,23,02,57,7.40
2015,09,23,02,58,7.40
2015,09,23,02,59,7.40
2015,09,23,03,00,7.40
2015,09,23,03,01,7.40
2015,09,23,03,02,7.40
2015,09,23,03,03,7.40
2015,09,23,03,04,7.40
2015,09,23,03,05,7.40
2015,09,23,03,06,7.40
2015,09,23,03,07,7.40
2015,09,23,03,08,7.40
2015,09,23,03,09,7.40
2015,09,23,03,10,7.40
2015,09,23,03,11,7.50
2015,09,23,03,12,7.50
2015,09,23,03,13,7.50
2015,09,23,03,14,7.50
2015,09,23,03,15,7.50
2015,09,23,03,16,7.60
2015,09,23,03,17,7.60
2015,09,23,03,18,7.60
2015,09,23,03,19,7.60
2015,09,23,03,20,7.60
2015,09,23,03,21,7.60
2015,09,23,03,22,7.60
2015,09,23,03,23,7.60
2015,09,23,03,24,7.60
2015,09,23,03,25,7.60
2015,09,23,03,26,7.60
2015,09,23,03,27,7.60
2015,09,23,03,28,7.60
2015,09,23,03,29,7.60
2015,09,23,03,30,7.60
2015,09,23,03,31,7.60
2015,09,23,03,32,7.60
2015,09,23,03,33,7.60
2015,09,23,03,34,7.60
2015,09,23,03,35,7.60
2015,09,23,03,36,7.60
2015,09,23,03,37,7.60
2015,09,23,03,38,7.60
2015,09,23,03,39,7.60
2015,09,23,03,40,7.60
2015,09,23,03,41,7.60
2015,09,23,03,42,7.60
2015,09,23,03,43,7.60
2015,09,23,03,44,7.60
2015,09,23,03,45,7.60
2015,09,23,03,46,7.60
2015,09,23,03,47,7.60
2015,09,23,03,48,7.60
2015,09,23,03,49,7.60
2015,09,23,03,50,7.50
2015,09,23,03,51,7.50
2015,09,23,03,52,7.50
2015,09,23,03,53,7.50
2015,09,23,03,54,7.50
2015,09,23,03,55,7.50
2015,09,23,03,56,7.50
2015,09,23,03,57,7.50
2015,09,23,03,58,7.50
2015,09,23,03,59,7.50
2015,09,23,04,00,7.50
2015,09,23,04,01,7.50
2015,09,23,04,02,7.50
2015,09,23,04,03,7.50
2015,09,23,04,04,7.50
2015,09,23,04,05,7.50
2015,09,23,04,06,7.50
2015,09,23,04,07,7.50
2015,09,23,04,08,7.50
2015,09,23,04,09,7.50
2015,09,23,04,10,7.50
2015,09,23,04,11,7.50
2015,09,23,04,12,7.50
2015,09,23,04,13,7.50
2015,09,23,04,14,7.50
2015,09,23,04,15,7.60
2015,09,23,04,16,7.60
2015,09,23,04,17,7.50
2015,09,23,04,18,7.50
2015,09,23,04,19,7.50
2015,09,23,04,20,7.50
2015,09,23,04,21,7.50
2015,09,23,04,22,7.50
2015,09,23,04,23,7.50
2015,09,23,04,24,7.50
2015,09,23,04,25,7.40
2015,09,23,04,26,7.40
2015,09,23,04,27,7.40
2015,09,23,04,28,7.40
2015,09,23,04,29,7.40
2015,09,23,04,30,7.40
2015,09,23,04,31,7.40
2015,09,23,04,32,7.40
2015,09,23,04,33,7.40
2015,09,23,04,34,7.30
2015,09,23,04,35,7.30
2015,09,23,04,36,7.30
2015,09,23,04,37,7.30
2015,09,23,04,38,7.30
2015,09,23,04,39,7.30
2015,09,23,04,40,7.30
2015,09,23,04,41,7.30
2015,09,23,04,42,7.30
2015,09,23,04,43,7.20
2015,09,23,04,44,7.20
2015,09,23,04,45,7.20
2015,09,23,04,46,7.20
2015,09,23,04,47,7.20
2015,09,23,04,48,7.20
2015,09,23,04,49,7.10
2015,09,23,04,50,7.10
2015,09,23,04,51,7.10
2015,09,23,04,52,7.10
2015,09,23,04,53,7.10
2015,09,23,04,54,7.00
2015,09,23,04,55,7.00
2015,09,23,04,56,7.00
2015,09,23,04,57,7.00
2015,09,23,04,58,7.00
2015,09,23,04,59,7.00
2015,09,23,05,00,7.00
2015,09,23,05,01,7.00
2015,09,23,05,02,7.00
2015,09,23,05,03,6.90
2015,09,23,05,04,6.90
2015,09,23,05,05,6.90
2015,09,23,05,06,6.90
2015,09,23,05,07,6.90
2015,09,23,05,08,6.90
2015,09,23,05,09,6.90
2015,09,23,05,10,6.90
2015,09,23,05,11,6.90
2015,09,23,05,12,6.90
2015,09,23,05,13,6.90
2015,09,23,05,14,6.90
2015,09,23,05,15,6.90
2015,09,23,05,16,6.90
2015,09,23,05,17,6.90
2015,09,23,05,18,6.90
2015,09,23,05,19,6.90
2015,09,23,05,20,6.90
2015,09,23,05,21,6.90
2015,09,23,05,22,6.90
2015,09,23,05,23,6.90
2015,09,23,05,24,6.90
2015,09,23,05,25,6.90
2015,09,23,05,26,6.90
2015,09,23,05,27,6.90
2015,09,23,05,28,6.90
2015,09,23,05,29,6.90
2015,09,23,05,30,6.90
2015,09,23,05,31,6.90
2015,09,23,05,32,6.80
2015,09,23,05,33,6.80
2015,09,23,05,34,6.80
2015,09,23,05,35,6.80
2015,09,23,05,36,6.80
2015,09,23,05,37,6.80
2015,09,23,05,38,6.80
2015,09,23,05,39,6.80
2015,09,23,05,40,6.80
2015,09,23,05,41,6.70
2015,09,23,05,42,6.70
2015,09,23,05,43,6.70
2015,09,23,05,44,6.70
2015,09,23,05,45,6.70
2015,09,23,05,46,6.70
2015,09,23,05,47,6.70
2015,09,23,05,48,6.70
2015,09,23,05,49,6.70
2015,09,23,05,50,6.70
2015,09,23,05,51,6.70
2015,09,23,05,52,6.70
2015,09,23,05,53,6.70
2015,09,23,05,54,6.70
2015,09,23,05,55,6.60
2015,09,23,05,56,6.60
2015,09,23,05,57,6.60
2015,09,23,05,58,6.60
2015,09,23,05,59,6.60
2015,09,23,06,00,6.60
2015,09,23,06,01,6.60
2015,09,23,06,02,6.50
2015,09,23,06,03,6.50
2015,09,23,06,04,6.50
2015,09,23,06,05,6.50
2015,09,23,06,06,6.50
2015,09,23,06,07,6.40
2015,09,23,06,08,6.40
2015,09,23,06,09,6.40
2015,09,23,06,10,6.40
2015,09,23,06,11,6.40
2015,09,23,06,12,6.40
2015,09,23,06,13,6.40
2015,09,23,06,14,6.40
2015,09,23,06,15,6.40
2015,09,23,06,16,6.30
2015,09,23,06,17,6.30
2015,09,23,06,18,6.30
2015,09,23,06,19,6.30
2015,09,23,06,20,6.30
2015,09,23,06,21,6.30
2015,09,23,06,22,6.30
2015,09,23,06,23,6.30
2015,09,23,06,24,6.30
2015,09,23,06,25,6.30
2015,09,23,06,26,6.30
2015,09,23,06,27,6.30
2015,09,23,06,28,6.30
2015,09,23,06,29,6.30
2015,09,23,06,30,6.30
2015,09,23,06,31,6.30
2015,09,23,06,32,6.30
2015,09,23,06,33,6.30
2015,09,23,06,34,6.30
2015,09,23,06,35,6.30
2015,09,23,06,36,6.30
2015,09,23,06,37,6.30
2015,09,23,06,38,6.30
2015,09,23,06,39,6.30
2015,09,23,06,40,6.30
2015,09,23,06,41,6.30
2015,09,23,06,42,6.30
2015,09,23,06,43,6.30
2015,09,23,06,44,6.30
2015,09,23,06,45,6.30
2015,09,23,06,46,6.30
2015,09,23,06,47,6.30
2015,09,23,06,48,6.30
2015,09,23,06,49,6.30
2015,09,23,06,50,6.30
2015,09,23,06,51,6.30
2015,09,23,06,52,6.30
2015,09,23,06,53,6.40
2015,09,23,06,54,6.40
2015,09,23,06,55,6.40
2015,09,23,06,56,6.40
2015,09,23,06,57,6.40
2015,09,23,06,58,6.40
2015,09,23,06,59,6.50
2015,09,23,07,00,6.50
2015,09,23,07,01,6.50
2015,09,23,07,02,6.50
2015,09,23,07,03,6.50
2015,09,23,07,04,6.50
2015,09,23,07,05,6.50
2015,09,23,07,06,6.50
2015,09,23,07,07,6.50
2015,09,23,07,08,6.50
2015,09,23,07,09,6.50
2015,09,23,07,10,6.50
2015,09,23,07,11,6.50
2015,09,23,07,12,6.50
2015,09,23,07,13,6.50
2015,09,23,07,14,6.50
2015,09,23,07,15,6.50
2015,09,23,07,16,6.50
2015,09,23,07,17,6.50
2015,09,23,07,18,6.50
2015,09,23,07,19,6.50
2015,09,23,07,20,6.50
2015,09,23,07,21,6.50
2015,09,23,07,22,6.50
2015,09,23,07,23,6.50
2015,09,23,07,24,6.60
2015,09,23,07,25,6.60
2015,09,23,07,26,6.60
2015,09,23,07,27,6.60
2015,09,23,07,28,6.60
2015,09,23,07,29,6.60
2015,09,23,07,30,6.60
2015,09,23,07,31,6.70
2015,09,23,07,32,6.70
2015,09,23,07,33,6.70
2015,09,23,07,34,6.70
2015,09,23,07,35,6.70
2015,09,23,07,36,6.70
2015,09,23,07,37,6.70
2015,09,23,07,38,6.80
2015,09,23,07,39,6.80
2015,09,23,07,40,6.80
2015,09,23,07,41,6.80
2015,09,23,07,42,6.80
2015,09,23,07,43,6.80
2015,09,23,07,44,6.80
2015,09,23,07,45,6.80
2015,09,23,07,46,6.80
2015,09,23,07,47,6.90
2015,09,23,07,48,6.90
2015,09,23,07,49,6.90
2015,09,23,07,50,6.90
2015,09,23,07,51,6.90
2015,09,23,07,52,6.90
2015,09,23,07,53,6.90
2015,09,23,07,54,6.90
2015,09,23,07,55,6.90
2015,09,23,07,56,6.90
2015,09,23,07,57,6.90
2015,09,23,07,58,6.90
2015,09,23,07,59,7.00
2015,09,23,08,00,7.00
2015,09,23,08,01,7.00
2015,09,23,08,02,7.00
2015,09,23,08,03,7.00
2015,09,23,08,04,7.00
2015,09,23,08,05,7.00
2015,09,23,08,06,7.10
2015,09,23,08,07,7.10
2015,09,23,08,08,7.10
2015,09,23,08,09,7.10
2015,09,23,08,10,7.10
2015,09,23,08,11,7.10
2015,09,23,08,12,7.10
2015,09,23,08,13,7.10
2015,09,23,08,14,7.10
2015,09,23,08,15,7.10
2015,09,23,08,16,7.10
2015,09,23,08,17,7.20
2015,09,23,08,18,7.20
2015,09,23,08,19,7.20
2015,09,23,08,20,7.20
2015,09,23,08,21,7.30
2015,09,23,08,22,7.30
2015,09,23,08,23,7.30
2015,09,23,08,24,7.40
2015,09,23,08,25,7.40
2015,09,23,08,26,7.40
2015,09,23,08,27,7.50
2015,09,23,08,28,7.60
2015,09,23,08,29,7.60
2015,09,23,08,30,7.70
2015,09,23,08,31,7.70
2015,09,23,08,32,7.80
2015,09,23,08,33,7.80
2015,09,23,08,34,7.90
2015,09,23,08,35,7.90
2015,09,23,08,36,8.00
2015,09,23,08,37,8.10
2015,09,23,08,38,8.10
2015,09,23,08,39,8.20
2015,09,23,08,40,8.20
2015,09,23,08,41,8.30
2015,09,23,08,42,8.40
2015,09,23,08,43,8.40
2015,09,23,08,44,8.50
2015,09,23,08,45,8.60
2015,09,23,08,46,8.70
2015,09,23,08,47,8.80
2015,09,23,08,48,8.80
2015,09,23,08,49,8.90
2015,09,23,08,50,8.90
2015,09,23,08,51,9.00
2015,09,23,08,52,9.00
2015,09,23,08,53,9.10
2015,09,23,08,54,9.10
2015,09,23,08,55,9.20
2015,09,23,08,56,9.20
2015,09,23,08,57,9.30
2015,09,23,08,58,9.30
2015,09,23,08,59,9.40
2015,09,23,09,00,9.40
2015,09,23,09,01,9.50
2015,09,23,09,02,9.60
2015,09,23,09,03,9.60
2015,09,23,09,04,9.60
2015,09,23,09,05,9.70
2015,09,23,09,06,9.70
2015,09,23,09,07,9.80
2015,09,23,09,08,9.80
2015,09,23,09,09,9.90
2015,09,23,09,10,9.90
2015,09,23,09,11,10.00
2015,09,23,09,12,10.10
2015,09,23,09,13,10.10
2015,09,23,09,14,10.20
2015,09,23,09,15,10.20
2015,09,23,09,16,10.30
2015,09,23,09,17,10.30
2015,09,23,09,18,10.40
2015,09,23,09,19,10.40
2015,09,23,09,20,10.50
2015,09,23,09,21,10.60
2015,09,23,09,22,10.60
2015,09,23,09,23,10.70
2015,09,23,09,24,10.80
2015,09,23,09,25,10.80
2015,09,23,09,26,10.90
2015,09,23,09,27,10.90
2015,09,23,09,28,11.00
2015,09,23,09,29,11.00
2015,09,23,09,30,11.10
2015,09,23,09,31,11.10
2015,09,23,09,32,11.20
2015,09,23,09,33,11.30
2015,09,23,09,34,11.30
2015,09,23,09,35,11.40
2015,09,23,09,36,11.50
2015,09,23,09,37,11.50
2015,09,23,09,38,11.60
2015,09,23,09,39,11.60
2015,09,23,09,40,11.70
2015,09,23,09,41,11.70
2015,09,23,09,42,11.80
2015,09,23,09,43,11.80
2015,09,23,09,44,11.80
2015,09,23,09,45,11.80
2015,09,23,09,46,11.90
2015,09,23,09,47,11.90
2015,09,23,09,48,11.90
2015,09,23,09,49,11.90
2015,09,23,09,50,12.00
2015,09,23,09,51,12.10
2015,09,23,09,52,12.10
2015,09,23,09,53,12.10
2015,09,23,09,54,12.20
2015,09,23,09,55,12.30
2015,09,23,09,56,12.30
2015,09,23,09,57,12.40
2015,09,23,09,58,12.40
2015,09,23,09,59,12.50
2015,09,23,10,00,12.50
2015,09,23,10,01,12.50
2015,09,23,10,02,12.50
2015,09,23,10,03,12.60
2015,09,23,10,04,12.60
2015,09,23,10,05,12.60
2015,09,23,10,06,12.60
2015,09,23,10,07,12.70
2015,09,23,10,08,12.70
2015,09,23,10,09,12.70
2015,09,23,10,10,12.80
2015,09,23,10,11,12.80
2015,09,23,10,12,12.90
2015,09,23,10,13,13.00
2015,09,23,10,14,13.00
2015,09,23,10,15,13.10
2015,09,23,10,16,13.20
2015,09,23,10,17,13.20
2015,09,23,10,18,13.30
2015,09,23,10,19,13.30
2015,09,23,10,20,13.30
2015,09,23,10,21,13.30
2015,09,23,10,22,13.30
2015,09,23,10,23,13.30
2015,09,23,10,24,13.40
2015,09,23,10,25,13.40
2015,09,23,10,26,13.50
2015,09,23,10,27,13.50
2015,09,23,10,28,13.60
2015,09,23,10,29,13.60
2015,09,23,10,30,13.60
2015,09,23,10,31,13.60
2015,09,23,10,32,13.70
2015,09,23,10,33,13.70
2015,09,23,10,34,13.80
2015,09,23,10,35,13.80
2015,09,23,10,36,13.90
2015,09,23,10,37,13.90
2015,09,23,10,38,14.00
2015,09,23,10,39,14.00
2015,09,23,10,40,14.00
2015,09,23,10,41,14.00
2015,09,23,10,42,13.90
2015,09,23,10,43,13.90
2015,09,23,10,44,13.80
2015,09,23,10,45,13.80
2015,09,23,10,46,13.80
2015,09,23,10,47,13.80
2015,09,23,10,48,13.80
2015,09,23,10,49,13.90
2015,09,23,10,50,13.90
2015,09,23,10,51,13.90
2015,09,23,10,52,14.00
2015,09,23,10,53,14.10
2015,09,23,10,54,14.20
2015,09,23,10,55,14.30
2015,09,23,10,56,14.30
2015,09,23,10,57,14.30
2015,09,23,10,58,14.30
2015,09,23,10,59,14.30
2015,09,23,11,00,14.30
2015,09,23,11,01,14.30
2015,09,23,11,02,14.40
2015,09,23,11,03,14.40
2015,09,23,11,04,14.50
2015,09,23,11,05,14.60
2015,09,23,11,06,14.70
2015,09,23,11,07,14.80
2015,09,23,11,08,14.90
2015,09,23,11,09,15.00
2015,09,23,11,10,15.10
2015,09,23,11,11,15.20
2015,09,23,11,12,15.30
2015,09,23,11,13,15.40
2015,09,23,11,14,15.50
2015,09,23,11,15,15.50
2015,09,23,11,16,15.60
2015,09,23,11,17,15.60
2015,09,23,11,18,15.60
2015,09,23,11,19,15.60
2015,09,23,11,20,15.50
2015,09,23,11,21,15.50
2015,09,23,11,22,15.40
2015,09,23,11,23,15.30
2015,09,23,11,24,15.20
2015,09,23,11,25,15.20
2015,09,23,11,26,15.10
2015,09,23,11,27,15.00
2015,09,23,11,28,15.00
2015,09,23,11,29,14.90
2015,09,23,11,30,14.90
2015,09,23,11,31,14.90
2015,09,23,11,32,14.90
2015,09,23,11,33,14.80
2015,09,23,11,34,14.80
2015,09,23,11,35,14.90
2015,09,23,11,36,14.90
2015,09,23,11,37,14.90
2015,09,23,11,38,15.00
2015,09,23,11,39,15.10
2015,09,23,11,40,15.10
2015,09,23,11,41,15.10
2015,09,23,11,42,15.10
2015,09,23,11,43,15.10
2015,09,23,11,44,15.10
2015,09,23,11,45,15.10
2015,09,23,11,46,15.10
2015,09,23,11,47,15.10
2015,09,23,11,48,15.10
2015,09,23,11,49,15.20
2015,09,23,11,50,15.20
2015,09,23,11,51,15.20
2015,09,23,11,52,15.20
2015,09,23,11,53,15.30
2015,09,23,11,54,15.30
2015,09,23,11,55,15.30
2015,09,23,11,56,15.30
2015,09,23,11,57,15.20
2015,09,23,11,58,15.20
2015,09,23,11,59,15.20
2015,09,23,12,00,15.20
2015,09,23,12,01,15.20
2015,09,23,12,02,15.20
2015,09,23,12,03,15.30
2015,09,23,12,04,15.30
2015,09,23,12,05,15.30
2015,09,23,12,06,15.30
2015,09,23,12,07,15.30
2015,09,23,12,08,15.40
2015,09,23,12,09,15.50
2015,09,23,12,10,15.60
2015,09,23,12,11,15.60
2015,09,23,12,12,15.70
2015,09,23,12,13,15.80
2015,09,23,12,14,15.80
2015,09,23,12,15,15.80
2015,09,23,12,16,15.90
2015,09,23,12,17,16.00
2015,09,23,12,18,16.00
2015,09,23,12,19,16.00
2015,09,23,12,20,16.00
2015,09,23,12,21,16.00
2015,09,23,12,22,16.00
2015,09,23,12,23,16.10
2015,09,23,12,24,16.10
2015,09,23,12,25,16.20
2015,09,23,12,26,16.20
2015,09,23,12,27,16.20
2015,09,23,12,28,16.30
2015,09,23,12,29,16.30
2015,09,23,12,30,16.30
2015,09,23,12,31,16.40
2015,09,23,12,32,16.50
2015,09,23,12,33,16.60
2015,09,23,12,34,16.60
2015,09,23,12,35,16.60
2015,09,23,12,36,16.70
2015,09,23,12,37,16.70
2015,09,23,12,38,16.80
2015,09,23,12,39,16.80
2015,09,23,12,40,16.80
2015,09,23,12,41,16.80
2015,09,23,12,42,16.80
2015,09,23,12,43,16.90
2015,09,23,12,44,16.90
2015,09,23,12,45,17.00
2015,09,23,12,46,16.80
2015,09,23,12,47,16.70
2015,09,23,12,48,16.60
2015,09,23,12,49,16.60
2015,09,23,12,50,16.60
2015,09,23,12,51,16.60
2015,09,23,12,52,16.50
2015,09,23,12,53,16.50
2015,09,23,12,54,16.50
2015,09,23,12,55,16.50
2015,09,23,12,56,16.40
2015,09,23,12,57,16.30
2015,09,23,12,58,16.30
2015,09,23,12,59,16.20
2015,09,23,13,00,16.20
2015,09,23,13,01,16.20
2015,09,23,13,02,16.20
2015,09,23,13,03,16.20
2015,09,23,13,04,16.20
2015,09,23,13,05,16.20
2015,09,23,13,06,16.20
2015,09,23,13,07,16.20
2015,09,23,13,08,16.20
2015,09,23,13,09,16.20
2015,09,23,13,10,16.10
2015,09,23,13,11,16.10
2015,09,23,13,12,16.10
2015,09,23,13,13,16.00
2015,09,23,13,14,16.00
2015,09,23,13,15,16.10
2015,09,23,13,16,16.10
2015,09,23,13,17,16.20
2015,09,23,13,18,16.20
2015,09,23,13,19,16.20
2015,09,23,13,20,16.20
2015,09,23,13,21,16.20
2015,09,23,13,22,16.20
2015,09,23,13,23,16.30
2015,09,23,13,24,16.30
2015,09,23,13,25,16.40
2015,09,23,13,26,16.50
2015,09,23,13,27,16.50
2015,09,23,13,28,16.60
2015,09,23,13,29,16.60
2015,09,23,13,30,16.60
2015,09,23,13,31,16.50
2015,09,23,13,32,16.50
2015,09,23,13,33,16.50
2015,09,23,13,34,16.40
2015,09,23,13,35,16.40
2015,09,23,13,36,16.40
2015,09,23,13,37,16.50
2015,09,23,13,38,16.50
2015,09,23,13,39,16.60
2015,09,23,13,40,16.70
2015,09,23,13,41,16.70
2015,09,23,13,42,16.80
2015,09,23,13,43,16.90
2015,09,23,13,44,16.90
2015,09,23,13,45,17.00
2015,09,23,13,46,17.10
2015,09,23,13,47,17.10
2015,09,23,13,48,17.10
2015,09,23,13,49,17.10
2015,09,23,13,50,17.10
2015,09,23,13,51,17.00
2015,09,23,13,52,17.00
2015,09,23,13,53,17.10
2015,09,23,13,54,17.10
2015,09,23,13,55,17.10
2015,09,23,13,56,17.10
2015,09,23,13,57,17.00
2015,09,23,13,58,16.90
2015,09,23,13,59,16.80
2015,09,23,14,00,16.80
2015,09,23,14,01,16.80
2015,09,23,14,02,16.80
2015,09,23,14,03,16.80
2015,09,23,14,04,16.80
2015,09,23,14,05,16.80
2015,09,23,14,06,16.70
2015,09,23,14,07,16.80
2015,09,23,14,08,16.80
2015,09,23,14,09,16.80
2015,09,23,14,10,16.80
2015,09,23,14,11,16.90
2015,09,23,14,12,16.90
2015,09,23,14,13,16.90
2015,09,23,14,14,17.00
2015,09,23,14,15,17.00
2015,09,23,14,16,17.00
2015,09,23,14,17,17.00
2015,09,23,14,18,17.10
2015,09,23,14,19,17.10
2015,09,23,14,20,17.10
2015,09,23,14,21,17.10
2015,09,23,14,22,17.10
2015,09,23,14,23,17.10
2015,09,23,14,24,17.10
2015,09,23,14,25,17.10
2015,09,23,14,26,17.10
2015,09,23,14,27,17.10
2015,09,23,14,28,17.10
2015,09,23,14,29,17.10
2015,09,23,14,30,17.10
2015,09,23,14,31,17.20
2015,09,23,14,32,17.30
2015,09,23,14,33,17.30
2015,09,23,14,34,17.40
2015,09,23,14,35,17.50
2015,09,23,14,36,17.50
2015,09,23,14,37,17.60
2015,09,23,14,38,17.60
2015,09,23,14,39,17.70
2015,09,23,14,40,17.70
2015,09,23,14,41,17.80
2015,09,23,14,42,17.90
2015,09,23,14,43,17.90
2015,09,23,14,44,17.90
2015,09,23,14,45,17.90
2015,09,23,14,46,17.90
2015,09,23,14,47,17.80
2015,09,23,14,48,17.80
2015,09,23,14,49,17.70
2015,09,23,14,50,17.60
2015,09,23,14,51,17.50
2015,09,23,14,52,17.40
2015,09,23,14,53,17.30
2015,09,23,14,54,17.30
2015,09,23,14,55,17.30
2015,09,23,14,56,17.20
2015,09,23,14,57,17.20
2015,09,23,14,58,17.30
2015,09,23,14,59,17.30
2015,09,23,15,00,17.30
2015,09,23,15,01,17.30
2015,09,23,15,02,17.40
2015,09,23,15,03,17.40
2015,09,23,15,04,17.40
2015,09,23,15,05,17.50
2015,09,23,15,06,17.60
2015,09,23,15,07,17.60
2015,09,23,15,08,17.70
2015,09,23,15,09,17.70
2015,09,23,15,10,17.80
2015,09,23,15,11,17.80
2015,09,23,15,12,17.80
2015,09,23,15,13,17.90
2015,09,23,15,14,17.90
2015,09,23,15,15,17.90
2015,09,23,15,16,17.90
2015,09,23,15,17,17.80
2015,09,23,15,18,17.70
2015,09,23,15,19,17.60
2015,09,23,15,20,17.50
2015,09,23,15,21,17.40
2015,09,23,15,22,17.30
2015,09,23,15,23,17.30
2015,09,23,15,24,17.30
2015,09,23,15,25,17.40
2015,09,23,15,26,17.40
2015,09,23,15,27,17.50
2015,09,23,15,28,17.50
2015,09,23,15,29,17.60
2015,09,23,15,30,17.70
2015,09,23,15,31,17.80
2015,09,23,15,32,17.80
2015,09,23,15,33,17.90
2015,09,23,15,34,17.90
2015,09,23,15,35,17.90
2015,09,23,15,36,17.90
2015,09,23,15,37,18.00
2015,09,23,15,38,18.00
2015,09,23,15,39,18.00
2015,09,23,15,40,18.00
2015,09,23,15,41,18.00
2015,09,23,15,42,17.90
2015,09,23,15,43,17.80
2015,09,23,15,44,17.70
2015,09,23,15,45,17.60
2015,09,23,15,46,17.50
2015,09,23,15,47,17.50
2015,09,23,15,48,17.40
2015,09,23,15,49,17.40
2015,09,23,15,50,17.40
2015,09,23,15,51,17.50
2015,09,23,15,52,17.50
2015,09,23,15,53,17.50
2015,09,23,15,54,17.50
2015,09,23,15,55,17.50
2015,09,23,15,56,17.50
2015,09,23,15,57,17.50
2015,09,23,15,58,17.50
2015,09,23,15,59,17.40
2015,09,23,16,00,17.50
2015,09,23,16,01,17.50
2015,09,23,16,02,17.50
2015,09,23,16,03,17.60
2015,09,23,16,04,17.60
2015,09,23,16,05,17.50
2015,09,23,16,06,17.50
2015,09,23,16,07,17.50
2015,09,23,16,08,17.50
2015,09,23,16,09,17.50
2015,09,23,16,10,17.50
2015,09,23,16,11,17.50
2015,09,23,16,12,17.60
2015,09,23,16,13,17.60
2015,09,23,16,14,17.60
2015,09,23,16,15,17.60
2015,09,23,16,16,17.60
2015,09,23,16,17,17.60
2015,09,23,16,18,17.60
2015,09,23,16,19,17.60
2015,09,23,16,20,17.50
2015,09,23,16,21,17.50
2015,09,23,16,22,17.50
2015,09,23,16,23,17.50
2015,09,23,16,24,17.50
2015,09,23,16,25,17.60
2015,09,23,16,26,17.60
2015,09,23,16,27,17.60
2015,09,23,16,28,17.60
2015,09,23,16,29,17.60
2015,09,23,16,30,17.60
2015,09,23,16,31,17.60
2015,09,23,16,32,17.60
2015,09,23,16,33,17.60
2015,09,23,16,34,17.70
2015,09,23,16,35,17.70
2015,09,23,16,36,17.70
2015,09,23,16,37,17.70
2015,09,23,16,38,17.80
2015,09,23,16,39,17.80
2015,09,23,16,40,17.80
2015,09,23,16,41,17.80
2015,09,23,16,42,17.80
2015,09,23,16,43,17.90
2015,09,23,16,44,17.90
2015,09,23,16,45,17.90
2015,09,23,16,46,18.00
2015,09,23,16,47,18.10
2015,09,23,16,48,18.10
2015,09,23,16,49,18.10
2015,09,23,16,50,18.20
2015,09,23,16,51,18.20
2015,09,23,16,52,18.20
2015,09,23,16,53,18.20
2015,09,23,16,54,18.30
2015,09,23,16,55,18.30
2015,09,23,16,56,18.40
2015,09,23,16,57,18.40
2015,09,23,16,58,18.50
2015,09,23,16,59,18.50
2015,09,23,17,00,18.60
2015,09,23,17,01,18.60
2015,09,23,17,02,18.50
2015,09,23,17,03,18.50
2015,09,23,17,04,18.40
2015,09,23,17,05,18.30
2015,09,23,17,06,18.30
2015,09,23,17,07,18.30
2015,09,23,17,08,18.20
2015,09,23,17,09,18.20
2015,09,23,17,10,18.30
2015,09,23,17,11,18.30
2015,09,23,17,12,18.30
2015,09,23,17,13,18.30
2015,09,23,17,14,18.30
2015,09,23,17,15,18.30
2015,09,23,17,16,18.40
2015,09,23,17,17,18.40
2015,09,23,17,18,18.40
2015,09,23,17,19,18.50
2015,09,23,17,20,18.50
2015,09,23,17,21,18.60
2015,09,23,17,22,18.60
2015,09,23,17,23,18.60
2015,09,23,17,24,18.60
2015,09,23,17,25,18.60
2015,09,23,17,26,18.60
2015,09,23,17,27,18.60
2015,09,23,17,28,18.60
2015,09,23,17,29,18.50
2015,09,23,17,30,18.50
2015,09,23,17,31,18.40
2015,09,23,17,32,18.40
2015,09,23,17,33,18.30
2015,09,23,17,34,18.30
2015,09,23,17,35,18.20
2015,09,23,17,36,18.10
2015,09,23,17,37,18.00
2015,09,23,17,38,18.00
2015,09,23,17,39,17.90
2015,09,23,17,40,17.90
2015,09,23,17,41,17.80
2015,09,23,17,42,17.80
2015,09,23,17,43,17.80